COSMOS 1275 DEB, 42148

Orbit data source: Space-Track

COSMOS 1275 DEB, 42148 is space debris in LEO originally from a launch on Thu, 04 Jun 1981 UTC launched from the Plesetsk Missile And Space Complex (PKMTR). Debris objects in space refer to the collection of defunct objects orbiting the Earth. Examples of debris include non-operational satellites, rocket bodies, and fragments generated from explosions, collisions, or faulty payload assembly.

Loading next visibility...
Identifier
42148, 1981-053RL
Orbit
LEO
Country
Flag of CISCIS
Related business
Manufacturer
Unknown
Mission
Spacecraft
Bus & Motor
Unknown
Mass
Unknown
Launch date (UTC)
1981-06-04 (45 years ago)
Launch vehicle
Unknown
Launch site
Plesetsk Missile And Space Complex (PKMTR)
Object type
Payload
Rocket body
Debris
Shape & HBR
Unknown shape, 0.1 m
Radar Cross Section
Small (<0.1 m²)

Expand to show TLE details & history
Last TLE update: 5 days ago

TLE from 5 days ago
0 COSMOS 1275 DEB
1 42148U 81053RL  26258.35823440  .00000787  00000-0  65703-3 0  9994
2 42148  83.0950 129.5631 0076883 279.1967  80.0505 13.85939625646203
Epoch: 2026-09-15T08:35Z
TLE epoch observation values (Epoch: 2026-09-15T08:35:51.452Z)
Latitude
0.00003°
Longitude
6.27339°
Altitude
936.507 km
Speed
7.388 km/s
True Right ascension
08h 38m 15s
True Declination
0° 00' 00"
Sunlit
Object was in daylight at epoch
Visualization orbit readout
Latitude
Unknown
Longitude
Unknown
Altitude
Unknown
Speed
Unknown
Apparent Right ascension
Unknown
Apparent Declination
Unknown
Sunlit
N/A
Visualization observer readout
Local Sidereal Time
13:02:27
Azimuth
Unknown
Elevation
Unknown
Doppler factor
Unknown
Orbital elements
Apogee altitude
996.287 km
Perigee altitude
883.758 km
Semi-major axis
7,318.16 km
Eccentricity
0.00769
Inclination
83.095°
RAAN
129.5631°
Arg. of periapsis
279.1967°
True anomaly
80.91967°
Mean anomaly
80.0505°
Eccentric anomaly
80.48495°
Mean motion
3.46689 °/min
Orbital period
103.84 mins
BSTAR
0.00065703
Loading maneuver chart data...
Computing Atmospheric mass density...

Documentation

Showing up to 5 results
|